TimeMDT,TemperatureF,Dew PointF,Humidity,Sea Level PressureIn,VisibilityMPH,Wind Direction,Wind SpeedMPH,Gust SpeedMPH,PrecipitationIn,Events,Conditions,WindDirDegrees,DateUTC
12:52 AM,37.0,28.9,73,30.15,10.0,West,5.8,-,N/A,,Clear,260,2013-05-10 06:52:00
1:52 AM,37.4,28.4,70,30.25,10.0,WNW,5.8,-,N/A,,Mostly Cloudy,300,2013-05-10 07:52:00
2:52 AM,34.0,27.0,75,30.15,10.0,NW,4.6,-,N/A,,Clear,320,2013-05-10 08:52:00
3:52 AM,30.0,24.1,79,30.17,10.0,Calm,Calm,-,N/A,,Clear,0,2013-05-10 09:52:00
4:52 AM,26.1,21.9,84,30.18,10.0,Calm,Calm,-,N/A,,Clear,0,2013-05-10 10:52:00
5:52 AM,26.1,21.9,84,30.20,10.0,Calm,Calm,-,N/A,,Clear,0,2013-05-10 11:52:00
6:52 AM,28.9,24.1,82,30.20,10.0,West,3.5,-,N/A,,Clear,280,2013-05-10 12:52:00
7:52 AM,39.9,27.0,60,30.18,10.0,NW,6.9,-,N/A,,Clear,320,2013-05-10 13:52:00
8:52 AM,46.0,28.9,51,30.16,10.0,NE,3.5,-,N/A,,Clear,40,2013-05-10 14:52:00
9:52 AM,50.0,27.0,41,30.15,10.0,North,5.8,-,N/A,,Clear,360,2013-05-10 15:52:00
10:52 AM,54.0,26.1,34,30.15,10.0,Variable,5.8,-,N/A,,Clear,0,2013-05-10 16:52:00
11:52 AM,57.0,24.1,28,30.12,10.0,NE,8.1,-,N/A,,Partly Cloudy,50,2013-05-10 17:52:00
12:52 PM,57.0,21.9,26,30.12,10.0,North,10.4,-,N/A,,Mostly Cloudy,360,2013-05-10 18:52:00
1:52 PM,59.0,23.0,25,30.10,10.0,Variable,5.8,-,N/A,,Mostly Cloudy,0,2013-05-10 19:52:00
2:52 PM,59.0,24.1,26,30.09,10.0,East,15.0,19.6,N/A,,Overcast,90,2013-05-10 20:52:00
3:52 PM,55.0,27.0,34,30.12,10.0,Variable,4.6,31.1,0.00,Rain,Light Rain,0,2013-05-10 21:52:00
4:52 PM,54.0,32.0,43,30.17,10.0,NNE,9.2,-,0.02,,Scattered Clouds,30,2013-05-10 22:52:00
5:52 PM,55.9,27.0,33,30.17,10.0,NNE,10.4,17.3,N/A,,Overcast,20,2013-05-10 23:52:00
6:52 PM,55.9,23.0,28,30.16,10.0,ENE,10.4,19.6,N/A,,Mostly Cloudy,60,2013-05-11 00:52:00
7:52 PM,50.0,26.1,39,30.18,10.0,NE,11.5,-,N/A,,Clear,40,2013-05-11 01:52:00
8:52 PM,45.0,28.0,52,30.21,10.0,ESE,3.5,-,N/A,,Clear,120,2013-05-11 02:52:00
9:52 PM,43.0,28.9,58,30.24,10.0,East,5.8,-,N/A,,Mostly Cloudy,90,2013-05-11 03:52:00
10:52 PM,41.0,32.0,70,30.26,10.0,East,5.8,-,N/A,,Mostly Cloudy,100,2013-05-11 04:52:00
11:52 PM,39.0,30.0,70,30.26,10.0,Calm,Calm,-,N/A,,Scattered Clouds,0,2013-05-11 05:52:00